Location: Ahausen
(50.4985°N, 8.2722°E)
Time: 11:46:28
(UTC+00:00)

Cosmos 1025 Rocket - Pass Details

Date: 18 September 2020
Orbit: 594 x 617 km, 82.5° (Epoch: 30 October)

Event Time Altitude Azimuth Distance (km) Brightness Sun altitude
Rises 18:44:56 0° 352° (N) 2,886 6.9 -12.0°
Reaches altitude 10° 18:47:11 10° 355° (N) 1,980 5.9 -12.4°
Maximum altitude 18:51:32 64° 77° (ENE) 685 3.0 -13.0°
Drops below altitude 10° 18:55:53 10° 160° (SSE) 1,975 5.3 -13.7°
Enters shadow 18:56:10 - 160° (SSE) 2,087 5.4 -13.7°
